Time,TemperatureF,DewpointF,PressureIn,WindDirection,WindDirectionDegrees,WindSpeedMPH,WindSpeedGustMPH,Humidity,HourlyPrecipIn,Conditions,Clouds,dailyrainin,SoftwareType,DateUTC
2013-05-18 00:01:00,62.7,57.8,30.07,NNW,334,0.0,0.0,84,0.00,,---,0.00,VWS V14.01,2013-05-18 04:01:00,
2013-05-18 00:06:00,62.4,57.8,30.07,NNW,334,0.0,0.0,85,0.00,,---,0.00,VWS V14.01,2013-05-18 04:06:00,
2013-05-18 00:11:00,62.2,57.6,30.07,NNW,334,0.0,0.0,85,0.00,,---,0.00,VWS V14.01,2013-05-18 04:11:00,
2013-05-18 00:16:00,62.0,57.8,30.07,NNW,334,0.0,0.0,86,0.00,,---,0.00,VWS V14.01,2013-05-18 04:16:00,
2013-05-18 00:21:00,61.8,57.6,30.07,NNW,334,0.0,0.0,86,0.00,,---,0.00,VWS V14.01,2013-05-18 04:21:00,
2013-05-18 00:26:00,61.7,57.5,30.07,NNW,334,0.0,0.0,86,0.00,,---,0.00,VWS V14.01,2013-05-18 04:26:00,
2013-05-18 00:31:00,61.6,57.4,30.07,NNW,334,0.0,0.0,86,0.00,,---,0.00,VWS V14.01,2013-05-18 04:31:00,
2013-05-18 00:36:00,61.5,57.3,30.07,NNW,334,0.0,0.0,86,0.00,,---,0.00,VWS V14.01,2013-05-18 04:36:00,
2013-05-18 00:41:00,61.3,57.4,30.07,NNW,334,0.0,0.0,87,0.00,,---,0.00,VWS V14.01,2013-05-18 04:41:00,
2013-05-18 00:46:00,61.2,57.3,30.08,NNW,334,0.0,0.0,87,0.00,,---,0.00,VWS V14.01,2013-05-18 04:46:00,
2013-05-18 00:51:00,61.0,57.1,30.08,NNW,334,0.0,0.0,87,0.00,,---,0.00,VWS V14.01,2013-05-18 04:51:00,
2013-05-18 00:56:00,60.9,57.3,30.08,NNW,334,0.0,0.0,88,0.00,,---,0.00,VWS V14.01,2013-05-18 04:56:00,
2013-05-18 01:01:00,60.8,57.2,30.07,NNW,334,0.0,1.0,88,0.00,,---,0.00,VWS V14.01,2013-05-18 05:01:00,
2013-05-18 01:06:00,60.6,57.0,30.07,NNW,334,0.0,0.0,88,0.00,,---,0.00,VWS V14.01,2013-05-18 05:06:00,
2013-05-18 01:11:00,60.5,57.2,30.07,NNW,334,0.0,0.0,89,0.00,,---,0.00,VWS V14.01,2013-05-18 05:11:00,
2013-05-18 01:16:00,60.3,57.0,30.07,NNW,334,0.0,0.0,89,0.00,,---,0.00,VWS V14.01,2013-05-18 05:16:00,
2013-05-18 01:21:00,60.2,57.0,30.07,NNW,334,0.0,0.0,89,0.00,,---,0.00,VWS V14.01,2013-05-18 05:21:00,
2013-05-18 01:26:00,60.1,56.8,30.07,NNW,334,0.0,0.0,89,0.00,,---,0.00,VWS V14.01,2013-05-18 05:26:00,
2013-05-18 01:31:00,60.0,56.8,30.07,NNW,334,0.0,1.0,89,0.00,,---,0.00,VWS V14.01,2013-05-18 05:31:00,
2013-05-18 01:36:00,59.9,56.7,30.07,NNW,334,1.0,1.0,89,0.00,,---,0.00,VWS V14.01,2013-05-18 05:36:00,
2013-05-18 01:41:00,59.7,56.8,30.07,NNW,334,0.0,0.0,90,0.00,,---,0.00,VWS V14.01,2013-05-18 05:41:00,
2013-05-18 01:46:00,59.6,56.7,30.08,NNW,334,0.0,0.0,90,0.00,,---,0.00,VWS V14.01,2013-05-18 05:46:00,
2013-05-18 01:51:00,59.6,56.7,30.08,NNW,334,0.0,1.0,90,0.00,,---,0.00,VWS V14.01,2013-05-18 05:51:00,
2013-05-18 01:56:00,59.5,56.6,30.07,NNW,334,0.0,0.0,90,0.00,,---,0.00,VWS V14.01,2013-05-18 05:56:00,
2013-05-18 02:01:00,59.4,56.5,30.08,NNW,334,0.0,0.0,90,0.00,,---,0.00,VWS V14.01,2013-05-18 06:01:00,
2013-05-18 02:06:00,59.4,56.8,30.08,NNW,334,0.0,0.0,91,0.00,,---,0.00,VWS V14.01,2013-05-18 06:06:00,
2013-05-18 02:11:00,59.3,56.7,30.07,NNW,334,0.0,0.0,91,0.00,,---,0.00,VWS V14.01,2013-05-18 06:11:00,
2013-05-18 02:16:00,59.2,56.6,30.08,NNW,334,0.0,0.0,91,0.00,,---,0.00,VWS V14.01,2013-05-18 06:16:00,
2013-05-18 02:21:00,59.1,56.5,30.08,NNW,334,0.0,0.0,91,0.00,,---,0.00,VWS V14.01,2013-05-18 06:21:00,
2013-05-18 02:26:00,59.0,56.4,30.07,NNW,334,0.0,0.0,91,0.00,,---,0.00,VWS V14.01,2013-05-18 06:26:00,
2013-05-18 02:31:00,58.8,56.5,30.07,NNW,334,0.0,0.0,92,0.00,,---,0.00,VWS V14.01,2013-05-18 06:31:00,
2013-05-18 02:36:00,58.7,56.4,30.07,NNW,334,0.0,0.0,92,0.00,,---,0.00,VWS V14.01,2013-05-18 06:36:00,
2013-05-18 02:41:00,58.5,56.2,30.07,NNW,334,0.0,0.0,92,0.00,,---,0.00,VWS V14.01,2013-05-18 06:41:00,
2013-05-18 02:46:00,58.4,56.1,30.07,NNW,334,0.0,0.0,92,0.00,,---,0.00,VWS V14.01,2013-05-18 06:46:00,
2013-05-18 02:51:00,58.4,56.1,30.08,NNW,334,0.0,0.0,92,0.00,,---,0.00,VWS V14.01,2013-05-18 06:51:00,
2013-05-18 02:56:00,58.3,56.3,30.07,NNW,334,0.0,0.0,93,0.00,,---,0.00,VWS V14.01,2013-05-18 06:56:00,
2013-05-18 03:01:00,58.2,56.2,30.07,NNW,334,0.0,0.0,93,0.00,,---,0.00,VWS V14.01,2013-05-18 07:01:00,
2013-05-18 03:06:00,58.1,56.1,30.07,NNW,334,0.0,0.0,93,0.00,,---,0.00,VWS V14.01,2013-05-18 07:06:00,
2013-05-18 03:11:00,58.0,56.0,30.08,NNW,334,0.0,0.0,93,0.00,,---,0.00,VWS V14.01,2013-05-18 07:11:00,
2013-05-18 03:16:00,57.9,55.9,30.08,NNW,334,0.0,0.0,93,0.00,,---,0.00,VWS V14.01,2013-05-18 07:16:00,
2013-05-18 03:21:00,57.7,55.7,30.08,NNW,334,0.0,0.0,93,0.00,,---,0.00,VWS V14.01,2013-05-18 07:21:00,
2013-05-18 03:26:00,57.6,55.6,30.08,NNW,334,0.0,0.0,93,0.00,,---,0.00,VWS V14.01,2013-05-18 07:26:00,
2013-05-18 03:31:00,57.4,55.4,30.08,NNW,334,0.0,0.0,93,0.00,,---,0.00,VWS V14.01,2013-05-18 07:31:00,
2013-05-18 03:36:00,57.3,55.6,30.08,NNW,334,0.0,0.0,94,0.00,,---,0.00,VWS V14.01,2013-05-18 07:36:00,
2013-05-18 03:41:00,57.2,55.5,30.08,NNW,334,0.0,0.0,94,0.00,,---,0.00,VWS V14.01,2013-05-18 07:41:00,
2013-05-18 03:46:00,57.1,55.4,30.08,NNW,334,0.0,0.0,94,0.00,,---,0.00,VWS V14.01,2013-05-18 07:46:00,
2013-05-18 03:51:00,57.1,55.4,30.08,NNW,334,0.0,0.0,94,0.00,,---,0.00,VWS V14.01,2013-05-18 07:51:00,
2013-05-18 03:56:00,57.0,55.6,30.08,NNW,334,0.0,0.0,95,0.00,,---,0.00,VWS V14.01,2013-05-18 07:56:00,
2013-05-18 04:01:00,56.9,55.5,30.09,NNW,334,0.0,0.0,95,0.00,,---,0.00,VWS V14.01,2013-05-18 08:01:00,
2013-05-18 04:06:00,56.9,55.5,30.09,NNW,334,0.0,0.0,95,0.00,,---,0.00,VWS V14.01,2013-05-18 08:06:00,
2013-05-18 04:11:00,56.8,55.4,30.09,NNW,334,0.0,0.0,95,0.00,,---,0.00,VWS V14.01,2013-05-18 08:11:00,
2013-05-18 04:16:00,56.6,55.2,30.09,NNW,334,0.0,0.0,95,0.00,,---,0.00,VWS V14.01,2013-05-18 08:16:00,
2013-05-18 04:21:00,56.5,55.1,30.09,NNW,334,0.0,0.0,95,0.00,,---,0.00,VWS V14.01,2013-05-18 08:21:00,
2013-05-18 04:26:00,56.4,55.0,30.09,NNW,334,0.0,0.0,95,0.00,,---,0.00,VWS V14.01,2013-05-18 08:26:00,
2013-05-18 04:31:00,56.2,54.8,30.09,NNW,334,0.0,0.0,95,0.00,,---,0.00,VWS V14.01,2013-05-18 08:31:00,
2013-05-18 04:36:00,56.0,54.6,30.09,NNW,334,0.0,0.0,95,0.00,,---,0.00,VWS V14.01,2013-05-18 08:36:00,
2013-05-18 04:41:00,55.8,54.4,30.09,NNW,334,0.0,0.0,95,0.00,,---,0.00,VWS V14.01,2013-05-18 08:41:00,
2013-05-18 04:46:00,55.7,54.3,30.09,NNW,334,0.0,0.0,95,0.00,,---,0.00,VWS V14.01,2013-05-18 08:46:00,
2013-05-18 04:51:00,55.6,54.2,30.09,NNW,334,0.0,0.0,95,0.00,,---,0.00,VWS V14.01,2013-05-18 08:51:00,
2013-05-18 04:56:00,55.5,54.4,30.09,NNW,334,0.0,0.0,96,0.00,,---,0.00,VWS V14.01,2013-05-18 08:56:00,
2013-05-18 05:01:00,55.4,54.3,30.09,NNW,334,0.0,0.0,96,0.00,,---,0.00,VWS V14.01,2013-05-18 09:01:00,
2013-05-18 05:06:00,55.3,54.2,30.09,NNW,334,0.0,0.0,96,0.00,,---,0.00,VWS V14.01,2013-05-18 09:06:00,
2013-05-18 05:11:00,55.2,54.1,30.09,NNW,334,0.0,0.0,96,0.00,,---,0.00,VWS V14.01,2013-05-18 09:11:00,
2013-05-18 05:16:00,55.2,54.1,30.09,NNW,334,0.0,0.0,96,0.00,,---,0.00,VWS V14.01,2013-05-18 09:16:00,
2013-05-18 05:21:00,55.1,54.0,30.09,NNW,334,0.0,0.0,96,0.00,,---,0.00,VWS V14.01,2013-05-18 09:21:00,
2013-05-18 05:26:00,55.0,53.9,30.09,NNW,334,0.0,0.0,96,0.00,,---,0.00,VWS V14.01,2013-05-18 09:26:00,
2013-05-18 05:31:00,54.9,53.8,30.09,NNW,334,0.0,0.0,96,0.00,,---,0.00,VWS V14.01,2013-05-18 09:31:00,
2013-05-18 05:36:00,54.8,53.7,30.09,NNW,334,0.0,0.0,96,0.00,,---,0.00,VWS V14.01,2013-05-18 09:36:00,
2013-05-18 05:41:00,54.7,53.6,30.09,NNW,334,0.0,0.0,96,0.00,,---,0.00,VWS V14.01,2013-05-18 09:41:00,
2013-05-18 05:46:00,54.6,53.5,30.09,NNW,334,0.0,0.0,96,0.00,,---,0.00,VWS V14.01,2013-05-18 09:46:00,
2013-05-18 05:51:00,54.5,53.4,30.09,NNW,334,0.0,0.0,96,0.00,,---,0.00,VWS V14.01,2013-05-18 09:51:00,
2013-05-18 05:56:00,54.4,53.3,30.10,NNW,334,0.0,0.0,96,0.00,,---,0.00,VWS V14.01,2013-05-18 09:56:00,
2013-05-18 06:01:00,54.4,53.6,30.10,NNW,334,0.0,0.0,97,0.00,,---,0.00,VWS V14.01,2013-05-18 10:01:00,
2013-05-18 06:06:00,54.4,53.6,30.10,NNW,334,0.0,0.0,97,0.00,,---,0.00,VWS V14.01,2013-05-18 10:06:00,
2013-05-18 06:11:00,54.5,53.7,30.10,NNW,334,0.0,0.0,97,0.00,,---,0.00,VWS V14.01,2013-05-18 10:11:00,
2013-05-18 06:16:00,54.6,53.8,30.10,NNW,334,0.0,0.0,97,0.00,,---,0.00,VWS V14.01,2013-05-18 10:16:00,
2013-05-18 06:21:00,54.7,53.9,30.11,NNW,334,0.0,0.0,97,0.00,,---,0.00,VWS V14.01,2013-05-18 10:21:00,
2013-05-18 06:26:00,54.8,54.0,30.11,NNW,334,0.0,0.0,97,0.00,,---,0.00,VWS V14.01,2013-05-18 10:26:00,
2013-05-18 06:31:00,54.8,54.0,30.11,NNW,334,0.0,0.0,97,0.00,,---,0.00,VWS V14.01,2013-05-18 10:31:00,
2013-05-18 06:36:00,54.7,53.9,30.11,NNW,334,0.0,0.0,97,0.00,,---,0.00,VWS V14.01,2013-05-18 10:36:00,
2013-05-18 06:41:00,54.8,54.0,30.11,NNW,334,0.0,0.0,97,0.00,,---,0.00,VWS V14.01,2013-05-18 10:41:00,
2013-05-18 06:46:00,54.9,54.1,30.11,NNW,334,0.0,0.0,97,0.00,,---,0.00,VWS V14.01,2013-05-18 10:46:00,
2013-05-18 06:51:00,55.0,54.2,30.12,NNW,334,0.0,1.0,97,0.00,,---,0.00,VWS V14.01,2013-05-18 10:51:00,
2013-05-18 06:56:00,55.2,54.4,30.12,NNW,334,1.0,2.0,97,0.00,,---,0.00,VWS V14.01,2013-05-18 10:56:00,
2013-05-18 07:01:00,55.4,54.6,30.12,NNW,334,0.0,0.0,97,0.00,,---,0.00,VWS V14.01,2013-05-18 11:01:00,
2013-05-18 07:06:00,55.5,54.4,30.12,NNW,334,0.0,0.0,96,0.00,,---,0.00,VWS V14.01,2013-05-18 11:06:00,
2013-05-18 07:11:00,55.7,54.6,30.12,NNW,334,0.0,0.0,96,0.00,,---,0.00,VWS V14.01,2013-05-18 11:11:00,
2013-05-18 07:16:00,55.8,54.7,30.12,WSW,246,0.0,0.0,96,0.00,,---,0.00,VWS V14.01,2013-05-18 11:16:00,
2013-05-18 07:21:00,55.9,54.8,30.12,WSW,246,0.0,0.0,96,0.00,,---,0.00,VWS V14.01,2013-05-18 11:21:00,
2013-05-18 07:26:00,56.1,54.7,30.12,WSW,246,0.0,0.0,95,0.00,,---,0.00,VWS V14.01,2013-05-18 11:26:00,
2013-05-18 07:31:00,56.3,54.6,30.12,WSW,246,0.0,0.0,94,0.00,,---,0.00,VWS V14.01,2013-05-18 11:31:00,
2013-05-18 07:36:00,56.5,55.1,30.12,WSW,246,0.0,0.0,95,0.00,,---,0.00,VWS V14.01,2013-05-18 11:36:00,
2013-05-18 07:41:00,56.9,55.2,30.13,WSW,246,2.0,2.0,94,0.00,,---,0.00,VWS V14.01,2013-05-18 11:41:00,
2013-05-18 07:46:00,57.2,55.2,30.13,WSW,246,1.0,1.0,93,0.00,,---,0.00,VWS V14.01,2013-05-18 11:46:00,
2013-05-18 07:51:00,57.3,55.3,30.13,WSW,246,0.0,0.0,93,0.00,,---,0.00,VWS V14.01,2013-05-18 11:51:00,
2013-05-18 07:56:00,57.3,55.0,30.13,WSW,246,0.0,0.0,92,0.00,,---,0.00,VWS V14.01,2013-05-18 11:56:00,
2013-05-18 08:01:00,57.4,55.1,30.13,WSW,246,0.0,1.0,92,0.00,,---,0.00,VWS V14.01,2013-05-18 12:01:00,
2013-05-18 08:06:00,57.3,55.0,30.13,WSW,246,0.0,0.0,92,0.00,,---,0.00,VWS V14.01,2013-05-18 12:06:00,
2013-05-18 08:11:00,57.4,55.1,30.13,WSW,246,0.0,0.0,92,0.00,,---,0.00,VWS V14.01,2013-05-18 12:11:00,
2013-05-18 08:16:00,57.8,55.2,30.13,WSW,246,0.0,0.0,91,0.00,,---,0.00,VWS V14.01,2013-05-18 12:16:00,
2013-05-18 08:21:00,58.4,55.5,30.13,WSW,246,0.0,0.0,90,0.00,,---,0.00,VWS V14.01,2013-05-18 12:21:00,
2013-05-18 08:26:00,58.9,54.7,30.13,NNW,331,0.0,0.0,86,0.00,,---,0.00,VWS V14.01,2013-05-18 12:26:00,
2013-05-18 08:31:00,59.9,55.7,30.13,NNW,331,0.0,0.0,86,0.00,,---,0.00,VWS V14.01,2013-05-18 12:31:00,
2013-05-18 08:36:00,61.0,56.5,30.13,NNW,331,0.0,0.0,85,0.00,,---,0.00,VWS V14.01,2013-05-18 12:36:00,
2013-05-18 08:41:00,61.6,56.1,30.13,NNW,331,0.0,0.0,82,0.00,,---,0.00,VWS V14.01,2013-05-18 12:41:00,
2013-05-18 08:46:00,61.5,55.6,30.13,NNW,331,0.0,0.0,81,0.00,,---,0.00,VWS V14.01,2013-05-18 12:46:00,
2013-05-18 08:51:00,61.9,56.7,30.13,NNW,331,0.0,0.0,83,0.00,,---,0.00,VWS V14.01,2013-05-18 12:51:00,
2013-05-18 08:56:00,62.6,56.7,30.13,NNW,331,0.0,0.0,81,0.00,,---,0.00,VWS V14.01,2013-05-18 12:56:00,
2013-05-18 09:01:00,63.2,57.3,30.13,WSW,258,0.0,0.0,81,0.00,,---,0.00,VWS V14.01,2013-05-18 13:01:00,
2013-05-18 09:06:00,63.3,56.3,30.14,NNE,25,1.0,1.0,78,0.00,,---,0.00,VWS V14.01,2013-05-18 13:06:00,
2013-05-18 09:11:00,63.3,57.4,30.13,NW,326,1.0,1.0,81,0.00,,---,0.00,VWS V14.01,2013-05-18 13:11:00,
2013-05-18 09:16:00,63.5,55.8,30.13,SW,215,2.0,2.0,76,0.00,,---,0.00,VWS V14.01,2013-05-18 13:16:00,
2013-05-18 09:21:00,64.1,55.7,30.13,South,171,0.0,1.0,74,0.00,,---,0.00,VWS V14.01,2013-05-18 13:21:00,
2013-05-18 09:26:00,64.4,55.9,30.14,East,98,3.0,3.0,74,0.00,,---,0.00,VWS V14.01,2013-05-18 13:26:00,
2013-05-18 09:31:00,64.3,55.1,30.14,SE,129,0.0,0.0,72,0.00,,---,0.00,VWS V14.01,2013-05-18 13:31:00,
2013-05-18 09:36:00,64.4,56.3,30.14,SSE,150,0.0,0.0,75,0.00,,---,0.00,VWS V14.01,2013-05-18 13:36:00,
2013-05-18 09:41:00,64.5,55.7,30.13,NE,40,2.0,3.0,73,0.00,,---,0.00,VWS V14.01,2013-05-18 13:41:00,
2013-05-18 09:46:00,64.5,56.0,30.13,SE,144,2.0,2.0,74,0.00,,---,0.00,VWS V14.01,2013-05-18 13:46:00,
2013-05-18 09:51:00,64.9,56.4,30.13,SSE,167,5.0,6.0,74,0.00,,---,0.00,VWS V14.01,2013-05-18 13:51:00,
2013-05-18 09:56:00,65.2,56.3,30.13,SSE,148,3.0,3.0,73,0.00,,---,0.00,VWS V14.01,2013-05-18 13:56:00,
2013-05-18 10:01:00,65.4,56.9,30.13,South,188,0.0,0.0,74,0.00,,---,0.00,VWS V14.01,2013-05-18 14:01:00,
2013-05-18 10:05:00,65.7,57.2,30.13,SE,142,0.0,1.0,74,0.00,,---,0.00,VWS V14.01,2013-05-18 14:05:00,
2013-05-18 10:10:00,65.5,56.2,30.13,SE,146,6.0,6.0,72,0.00,,---,0.00,VWS V14.01,2013-05-18 14:10:00,
2013-05-18 10:15:00,65.2,56.0,30.13,ESE,120,2.0,2.0,72,0.00,,---,0.00,VWS V14.01,2013-05-18 14:15:00,
2013-05-18 10:20:00,65.4,57.3,30.13,ESE,103,1.0,1.0,75,0.00,,---,0.00,VWS V14.01,2013-05-18 14:20:00,
2013-05-18 10:25:00,65.6,56.7,30.13,South,175,0.0,1.0,73,0.00,,---,0.00,VWS V14.01,2013-05-18 14:25:00,
2013-05-18 10:30:00,65.9,57.8,30.13,SW,219,2.0,4.0,75,0.00,,---,0.00,VWS V14.01,2013-05-18 14:30:00,
2013-05-18 10:35:00,66.0,57.1,30.14,SE,144,1.0,5.0,73,0.00,,---,0.00,VWS V14.01,2013-05-18 14:35:00,
2013-05-18 10:40:00,66.0,57.5,30.14,South,180,2.0,3.0,74,0.00,,---,0.00,VWS V14.01,2013-05-18 14:40:00,
2013-05-18 10:45:00,66.0,57.1,30.14,SSE,155,1.0,2.0,73,0.00,,---,0.00,VWS V14.01,2013-05-18 14:45:00,
2013-05-18 10:50:00,66.0,57.5,30.14,SSE,155,0.0,0.0,74,0.00,,---,0.00,VWS V14.01,2013-05-18 14:50:00,
2013-05-18 10:55:00,65.9,57.4,30.14,South,182,3.0,6.0,74,0.00,,---,0.00,VWS V14.01,2013-05-18 14:55:00,
2013-05-18 11:00:00,65.9,57.0,30.14,SSE,149,3.0,8.0,73,0.00,,---,0.00,VWS V14.01,2013-05-18 15:00:00,
2013-05-18 11:05:00,65.7,57.2,30.14,SE,144,2.0,5.0,74,0.00,,---,0.00,VWS V14.01,2013-05-18 15:05:00,
2013-05-18 11:10:00,65.6,57.1,30.14,SSE,156,3.0,3.0,74,0.00,,---,0.00,VWS V14.01,2013-05-18 15:10:00,
2013-05-18 11:15:00,65.4,56.9,30.14,SE,144,0.0,1.0,74,0.00,,---,0.00,VWS V14.01,2013-05-18 15:15:00,
2013-05-18 11:20:00,65.4,56.9,30.14,East,99,1.0,3.0,74,0.00,,---,0.00,VWS V14.01,2013-05-18 15:20:00,
2013-05-18 11:25:00,67.0,59.6,30.14,South,180,4.0,6.0,77,0.00,,---,0.00,VWS V14.01,2013-05-18 15:25:00,
2013-05-18 11:30:00,67.4,57.7,30.14,SSE,148,4.0,6.0,71,0.00,,---,0.00,VWS V14.01,2013-05-18 15:30:00,
2013-05-18 11:35:00,66.8,57.5,30.13,SSW,194,6.0,11.0,72,0.00,,---,0.00,VWS V14.01,2013-05-18 15:35:00,
2013-05-18 11:40:00,66.1,57.2,30.13,ESE,102,0.0,1.0,73,0.00,,---,0.00,VWS V14.01,2013-05-18 15:40:00,
2013-05-18 11:45:00,65.9,57.4,30.13,East,96,3.0,5.0,74,0.00,,---,0.00,VWS V14.01,2013-05-18 15:45:00,
2013-05-18 11:50:00,65.8,57.7,30.13,SSE,148,2.0,2.0,75,0.00,,---,0.00,VWS V14.01,2013-05-18 15:50:00,
2013-05-18 11:55:00,65.8,58.4,30.13,South,175,0.0,2.0,77,0.00,,---,0.00,VWS V14.01,2013-05-18 15:55:00,
2013-05-18 12:00:00,66.1,58.0,30.13,ESE,109,5.0,5.0,75,0.00,,---,0.00,VWS V14.01,2013-05-18 16:00:00,
2013-05-18 12:05:00,66.2,57.7,30.13,ESE,108,1.0,3.0,74,0.00,,---,0.00,VWS V14.01,2013-05-18 16:05:00,
2013-05-18 12:10:00,66.4,58.2,30.13,ESE,108,0.0,0.0,75,0.00,,---,0.00,VWS V14.01,2013-05-18 16:10:00,
2013-05-18 12:15:00,66.8,58.6,30.13,South,170,2.0,2.0,75,0.00,,---,0.00,VWS V14.01,2013-05-18 16:15:00,
2013-05-18 12:20:00,67.1,58.5,30.13,NE,43,3.0,5.0,74,0.00,,---,0.00,VWS V14.01,2013-05-18 16:20:00,
2013-05-18 12:25:00,67.1,58.9,30.12,SE,129,1.0,4.0,75,0.00,,---,0.00,VWS V14.01,2013-05-18 16:25:00,
2013-05-18 12:30:00,67.3,58.7,30.12,ENE,74,3.0,4.0,74,0.00,,---,0.00,VWS V14.01,2013-05-18 16:30:00,
2013-05-18 12:35:00,67.3,58.7,30.12,SSW,197,2.0,7.0,74,0.00,,---,0.00,VWS V14.01,2013-05-18 16:35:00,
2013-05-18 12:40:00,67.0,58.8,30.12,SE,132,9.0,9.0,75,0.00,,---,0.00,VWS V14.01,2013-05-18 16:40:00,
2013-05-18 12:45:00,67.2,60.1,30.11,ESE,111,3.0,3.0,78,0.00,,---,0.00,VWS V14.01,2013-05-18 16:45:00,
2013-05-18 12:50:00,67.6,60.1,30.11,South,178,5.0,7.0,77,0.00,,---,0.00,VWS V14.01,2013-05-18 16:50:00,
2013-05-18 12:55:00,68.1,60.3,30.11,SSE,154,7.0,9.0,76,0.00,,---,0.00,VWS V14.01,2013-05-18 16:55:00,
2013-05-18 13:00:00,67.8,59.6,30.11,SE,131,6.0,8.0,75,0.00,,---,0.00,VWS V14.01,2013-05-18 17:00:00,
2013-05-18 13:05:00,67.9,60.8,30.11,ESE,113,3.0,5.0,78,0.00,,---,0.00,VWS V14.01,2013-05-18 17:05:00,
2013-05-18 13:10:00,68.7,61.2,30.11,North,355,3.0,9.0,77,0.00,,---,0.00,VWS V14.01,2013-05-18 17:10:00,
2013-05-18 13:15:00,69.3,60.7,30.11,SE,130,4.0,8.0,74,0.00,,---,0.00,VWS V14.01,2013-05-18 17:15:00,
2013-05-18 13:20:00,69.5,60.5,30.11,SE,142,0.0,3.0,73,0.00,,---,0.00,VWS V14.01,2013-05-18 17:20:00,
2013-05-18 13:25:00,69.6,60.6,30.11,SE,138,3.0,4.0,73,0.00,,---,0.00,VWS V14.01,2013-05-18 17:25:00,
2013-05-18 13:30:00,69.6,61.0,30.11,SE,134,4.0,4.0,74,0.00,,---,0.00,VWS V14.01,2013-05-18 17:30:00,
2013-05-18 13:35:00,69.5,60.5,30.10,SE,125,3.0,5.0,73,0.00,,---,0.00,VWS V14.01,2013-05-18 17:35:00,
2013-05-18 13:40:00,69.4,60.8,30.10,ESE,112,1.0,3.0,74,0.00,,---,0.00,VWS V14.01,2013-05-18 17:40:00,
2013-05-18 13:45:00,69.7,61.0,30.10,ESE,111,4.0,8.0,74,0.00,,---,0.00,VWS V14.01,2013-05-18 17:45:00,
2013-05-18 13:50:00,69.4,60.4,30.11,SE,136,5.0,6.0,73,0.00,,---,0.00,VWS V14.01,2013-05-18 17:50:00,
2013-05-18 13:55:00,68.9,60.3,30.11,SSW,196,4.0,4.0,74,0.00,,---,0.00,VWS V14.01,2013-05-18 17:55:00,
2013-05-18 14:00:00,68.5,60.6,30.10,SE,134,5.0,7.0,76,0.00,,---,0.00,VWS V14.01,2013-05-18 18:00:00,
2013-05-18 14:05:00,68.7,61.6,30.10,SSE,148,0.0,6.0,78,0.00,,---,0.00,VWS V14.01,2013-05-18 18:05:00,
2013-05-18 14:10:00,69.1,61.2,30.10,SSE,161,3.0,5.0,76,0.00,,---,0.00,VWS V14.01,2013-05-18 18:10:00,
2013-05-18 14:15:00,69.3,61.8,30.10,SSW,202,4.0,4.0,77,0.00,,---,0.00,VWS V14.01,2013-05-18 18:15:00,
2013-05-18 14:20:00,69.8,61.9,30.10,East,101,2.0,3.0,76,0.00,,---,0.00,VWS V14.01,2013-05-18 18:20:00,
2013-05-18 14:25:00,70.5,61.8,30.10,ESE,117,4.0,5.0,74,0.00,,---,0.00,VWS V14.01,2013-05-18 18:25:00,
2013-05-18 14:30:00,70.8,62.1,30.09,South,178,3.0,5.0,74,0.00,,---,0.00,VWS V14.01,2013-05-18 18:30:00,
2013-05-18 14:35:00,70.7,62.0,30.09,SSW,193,5.0,5.0,74,0.00,,---,0.00,VWS V14.01,2013-05-18 18:35:00,
2013-05-18 14:40:00,70.8,62.5,30.09,ESE,122,7.0,10.0,75,0.00,,---,0.00,VWS V14.01,2013-05-18 18:40:00,
2013-05-18 14:45:00,71.2,63.3,30.09,SSW,200,4.0,4.0,76,0.00,,---,0.00,VWS V14.01,2013-05-18 18:45:00,
2013-05-18 14:50:00,71.4,63.8,30.08,SSE,158,8.0,10.0,77,0.00,,---,0.00,VWS V14.01,2013-05-18 18:50:00,
2013-05-18 14:55:00,71.7,63.7,30.08,NE,53,0.0,2.0,76,0.00,,---,0.00,VWS V14.01,2013-05-18 18:55:00,
2013-05-18 15:00:00,71.6,62.9,30.09,ENE,77,3.0,3.0,74,0.00,,---,0.00,VWS V14.01,2013-05-18 19:00:00,
2013-05-18 15:05:00,71.4,63.1,30.08,SSE,160,4.0,7.0,75,0.00,,---,0.00,VWS V14.01,2013-05-18 19:05:00,
2013-05-18 15:10:00,71.2,62.9,30.08,South,180,6.0,6.0,75,0.00,,---,0.00,VWS V14.01,2013-05-18 19:10:00,
2013-05-18 15:15:00,70.5,62.6,30.08,South,175,6.0,6.0,76,0.00,,---,0.00,VWS V14.01,2013-05-18 19:15:00,
2013-05-18 15:20:00,70.2,63.4,30.09,SSW,199,6.0,6.0,79,0.00,,---,0.00,VWS V14.01,2013-05-18 19:20:00,
2013-05-18 15:25:00,69.7,62.2,30.08,SE,146,5.0,7.0,77,0.00,,---,0.00,VWS V14.01,2013-05-18 19:25:00,
2013-05-18 15:30:00,69.5,63.1,30.08,SE,125,0.0,2.0,80,0.00,,---,0.00,VWS V14.01,2013-05-18 19:30:00,
2013-05-18 15:35:00,69.4,62.6,30.08,SSW,199,4.0,8.0,79,0.00,,---,0.00,VWS V14.01,2013-05-18 19:35:00,
2013-05-18 15:40:00,69.3,62.5,30.08,SE,125,7.0,7.0,79,0.00,,---,0.00,VWS V14.01,2013-05-18 19:40:00,
2013-05-18 15:45:00,69.0,62.6,30.07,SE,126,3.0,4.0,80,0.00,,---,0.00,VWS V14.01,2013-05-18 19:45:00,
2013-05-18 15:50:00,69.0,62.6,30.07,SE,142,5.0,5.0,80,0.00,,---,0.00,VWS V14.01,2013-05-18 19:50:00,
2013-05-18 15:55:00,69.0,62.9,30.07,South,189,2.0,8.0,81,0.00,,---,0.00,VWS V14.01,2013-05-18 19:55:00,
2013-05-18 16:00:00,69.1,62.7,30.08,South,179,4.0,4.0,80,0.00,,---,0.00,VWS V14.01,2013-05-18 20:00:00,
2013-05-18 16:05:00,69.2,62.8,30.08,SE,127,2.0,5.0,80,0.00,,---,0.00,VWS V14.01,2013-05-18 20:05:00,
2013-05-18 16:10:00,69.2,62.8,30.08,SSW,198,4.0,8.0,80,0.00,,---,0.00,VWS V14.01,2013-05-18 20:10:00,
2013-05-18 16:15:00,69.4,63.0,30.08,South,190,2.0,4.0,80,0.00,,---,0.00,VWS V14.01,2013-05-18 20:15:00,
2013-05-18 16:20:00,69.7,63.3,30.08,ESE,109,2.0,2.0,80,0.00,,---,0.00,VWS V14.01,2013-05-18 20:20:00,
2013-05-18 16:25:00,69.8,63.0,30.08,SE,140,5.0,5.0,79,0.00,,---,0.00,VWS V14.01,2013-05-18 20:25:00,
2013-05-18 16:30:00,69.6,63.2,30.08,SSE,153,3.0,3.0,80,0.00,,---,0.00,VWS V14.01,2013-05-18 20:30:00,
2013-05-18 16:35:00,69.3,62.9,30.08,SSE,160,0.0,1.0,80,0.00,,---,0.00,VWS V14.01,2013-05-18 20:35:00,
2013-05-18 16:40:00,69.0,62.6,30.08,SSW,192,1.0,4.0,80,0.00,,---,0.00,VWS V14.01,2013-05-18 20:40:00,
2013-05-18 16:45:00,68.9,62.8,30.08,SSW,193,0.0,6.0,81,0.00,,---,0.00,VWS V14.01,2013-05-18 20:45:00,
2013-05-18 16:50:00,68.7,62.6,30.08,South,180,1.0,2.0,81,0.00,,---,0.00,VWS V14.01,2013-05-18 20:50:00,
2013-05-18 16:55:00,68.6,62.9,30.08,SSW,202,0.0,0.0,82,0.00,,---,0.00,VWS V14.01,2013-05-18 20:55:00,
2013-05-18 17:00:00,68.4,62.7,30.08,SE,130,0.0,1.0,82,0.00,,---,0.00,VWS V14.01,2013-05-18 21:00:00,
2013-05-18 17:05:00,68.2,62.8,30.07,WSW,244,2.0,5.0,83,0.00,,---,0.00,VWS V14.01,2013-05-18 21:05:00,
2013-05-18 17:10:00,68.0,62.7,30.08,SW,218,1.0,1.0,83,0.00,,---,0.00,VWS V14.01,2013-05-18 21:10:00,
2013-05-18 17:15:00,67.7,62.7,30.08,SSE,166,3.0,3.0,84,0.00,,---,0.00,VWS V14.01,2013-05-18 21:15:00,
2013-05-18 17:20:00,67.6,62.6,30.08,SSW,199,2.0,4.0,84,0.00,,---,0.00,VWS V14.01,2013-05-18 21:20:00,
2013-05-18 17:25:00,67.5,62.8,30.08,WSW,239,2.0,4.0,85,0.00,,---,0.00,VWS V14.01,2013-05-18 21:25:00,
2013-05-18 17:30:00,67.3,62.6,30.08,South,177,1.0,3.0,85,0.00,,---,0.00,VWS V14.01,2013-05-18 21:30:00,
2013-05-18 17:35:00,67.1,62.8,30.08,SSE,159,5.0,8.0,86,0.00,,---,0.00,VWS V14.01,2013-05-18 21:35:00,
2013-05-18 17:40:00,66.9,62.6,30.08,East,85,5.0,7.0,86,0.00,,---,0.00,VWS V14.01,2013-05-18 21:40:00,
2013-05-18 17:45:00,66.7,62.4,30.08,SW,222,3.0,3.0,86,0.00,,---,0.00,VWS V14.01,2013-05-18 21:45:00,
2013-05-18 17:50:00,66.6,62.9,30.08,SSW,207,4.0,6.0,88,0.01,,---,0.01,VWS V14.01,2013-05-18 21:50:00,
2013-05-18 17:55:00,66.4,62.7,30.08,South,186,1.0,6.0,88,0.01,,---,0.01,VWS V14.01,2013-05-18 21:55:00,
2013-05-18 18:00:00,66.1,62.5,30.08,SSE,157,2.0,6.0,88,0.01,,---,0.01,VWS V14.01,2013-05-18 22:00:00,
2013-05-18 18:05:00,65.9,62.6,30.08,SSW,211,3.0,5.0,89,0.01,,---,0.01,VWS V14.01,2013-05-18 22:05:00,
2013-05-18 18:10:00,65.8,62.5,30.08,ENE,66,0.0,2.0,89,0.01,,---,0.01,VWS V14.01,2013-05-18 22:10:00,
2013-05-18 18:15:00,65.7,62.4,30.08,WSW,246,0.0,0.0,89,0.01,,---,0.01,VWS V14.01,2013-05-18 22:15:00,
2013-05-18 18:20:00,65.6,62.3,30.08,SSE,160,2.0,3.0,89,0.01,,---,0.01,VWS V14.01,2013-05-18 22:20:00,
2013-05-18 18:25:00,65.5,62.2,30.08,SW,215,2.0,4.0,89,0.01,,---,0.01,VWS V14.01,2013-05-18 22:25:00,
2013-05-18 18:30:00,65.4,62.1,30.08,South,188,3.0,4.0,89,0.01,,---,0.01,VWS V14.01,2013-05-18 22:30:00,
2013-05-18 18:35:00,65.3,62.0,30.08,SSW,207,1.0,5.0,89,0.01,,---,0.01,VWS V14.01,2013-05-18 22:35:00,
2013-05-18 18:40:00,65.3,62.0,30.08,West,273,3.0,3.0,89,0.01,,---,0.01,VWS V14.01,2013-05-18 22:40:00,
2013-05-18 18:45:00,65.2,62.2,30.08,South,189,6.0,7.0,90,0.01,,---,0.01,VWS V14.01,2013-05-18 22:45:00,
2013-05-18 18:50:00,65.2,62.2,30.08,WNW,293,5.0,5.0,90,0.00,,---,0.01,VWS V14.01,2013-05-18 22:50:00,
2013-05-18 18:55:00,65.1,61.8,30.08,SW,228,3.0,4.0,89,0.00,,---,0.01,VWS V14.01,2013-05-18 22:55:00,
2013-05-18 19:00:00,65.1,61.8,30.09,NNE,23,0.0,0.0,89,0.00,,---,0.01,VWS V14.01,2013-05-18 23:00:00,
2013-05-18 19:05:00,65.0,61.7,30.08,NNW,329,1.0,2.0,89,0.00,,---,0.01,VWS V14.01,2013-05-18 23:05:00,
2013-05-18 19:10:00,64.9,61.6,30.08,NNE,30,3.0,5.0,89,0.00,,---,0.01,VWS V14.01,2013-05-18 23:10:00,
2013-05-18 19:15:00,64.8,61.8,30.08,SW,218,2.0,2.0,90,0.00,,---,0.01,VWS V14.01,2013-05-18 23:15:00,
2013-05-18 19:20:00,64.7,61.4,30.08,SW,218,1.0,3.0,89,0.00,,---,0.01,VWS V14.01,2013-05-18 23:20:00,
2013-05-18 19:25:00,64.5,61.2,30.09,SSW,192,1.0,3.0,89,0.00,,---,0.01,VWS V14.01,2013-05-18 23:25:00,
2013-05-18 19:30:00,64.4,61.1,30.09,South,190,1.0,1.0,89,0.00,,---,0.01,VWS V14.01,2013-05-18 23:30:00,
2013-05-18 19:35:00,64.3,61.3,30.09,South,172,2.0,3.0,90,0.00,,---,0.01,VWS V14.01,2013-05-18 23:35:00,
2013-05-18 19:40:00,64.1,60.8,30.09,South,174,5.0,5.0,89,0.00,,---,0.01,VWS V14.01,2013-05-18 23:40:00,
2013-05-18 19:45:00,64.0,61.0,30.09,North,360,2.0,4.0,90,0.00,,---,0.01,VWS V14.01,2013-05-18 23:45:00,
2013-05-18 19:50:00,63.8,60.5,30.09,ENE,59,2.0,2.0,89,0.00,,---,0.01,VWS V14.01,2013-05-18 23:50:00,
2013-05-18 19:55:00,63.6,60.6,30.09,WSW,254,3.0,3.0,90,0.00,,---,0.01,VWS V14.01,2013-05-18 23:55:00,
2013-05-18 20:00:00,63.5,60.5,30.09,SSW,207,0.0,3.0,90,0.00,,---,0.01,VWS V14.01,2013-05-19 00:00:00,
2013-05-18 20:05:00,63.3,60.3,30.10,ESE,114,3.0,4.0,90,0.00,,---,0.01,VWS V14.01,2013-05-19 00:05:00,
2013-05-18 20:10:00,63.2,60.2,30.10,West,279,3.0,4.0,90,0.00,,---,0.01,VWS V14.01,2013-05-19 00:10:00,
2013-05-18 20:15:00,63.0,60.0,30.10,SSE,156,2.0,3.0,90,0.00,,---,0.01,VWS V14.01,2013-05-19 00:15:00,
2013-05-18 20:20:00,62.9,60.2,30.10,WSW,254,0.0,0.0,91,0.00,,---,0.01,VWS V14.01,2013-05-19 00:20:00,
2013-05-18 20:25:00,62.7,60.0,30.10,South,189,5.0,5.0,91,0.00,,---,0.01,VWS V14.01,2013-05-19 00:25:00,
2013-05-18 20:30:00,62.6,59.9,30.11,SSW,199,4.0,7.0,91,0.00,,---,0.01,VWS V14.01,2013-05-19 00:30:00,
2013-05-18 20:35:00,62.4,59.7,30.11,SSW,201,7.0,7.0,91,0.00,,---,0.01,VWS V14.01,2013-05-19 00:35:00,
2013-05-18 20:40:00,62.3,59.6,30.11,ESE,105,5.0,5.0,91,0.00,,---,0.01,VWS V14.01,2013-05-19 00:40:00,
2013-05-18 20:45:00,62.1,59.8,30.11,SSW,205,5.0,5.0,92,0.00,,---,0.01,VWS V14.01,2013-05-19 00:45:00,
2013-05-18 20:50:00,62.0,59.7,30.10,WNW,295,2.0,3.0,92,0.00,,---,0.01,VWS V14.01,2013-05-19 00:50:00,
2013-05-18 20:55:00,61.9,59.5,30.10,NW,311,2.0,2.0,92,0.00,,---,0.01,VWS V14.01,2013-05-19 00:55:00,
2013-05-18 21:00:00,61.8,59.5,30.11,NW,323,0.0,2.0,92,0.00,,---,0.01,VWS V14.01,2013-05-19 01:00:00,
2013-05-18 21:05:00,61.7,59.4,30.11,NNW,330,3.0,4.0,92,0.00,,---,0.01,VWS V14.01,2013-05-19 01:05:00,
2013-05-18 21:10:00,61.6,59.6,30.11,West,279,2.0,4.0,93,0.00,,---,0.01,VWS V14.01,2013-05-19 01:10:00,
2013-05-18 21:15:00,61.4,59.4,30.11,SSW,198,1.0,4.0,93,0.00,,---,0.01,VWS V14.01,2013-05-19 01:15:00,
2013-05-18 21:20:00,61.3,59.3,30.12,NNW,339,0.0,0.0,93,0.00,,---,0.01,VWS V14.01,2013-05-19 01:20:00,
2013-05-18 21:25:00,61.3,59.6,30.12,West,261,0.0,1.0,94,0.00,,---,0.01,VWS V14.01,2013-05-19 01:25:00,
2013-05-18 21:30:00,61.2,59.2,30.12,West,261,2.0,2.0,93,0.00,,---,0.01,VWS V14.01,2013-05-19 01:30:00,
2013-05-18 21:35:00,61.0,59.3,30.13,NNW,340,0.0,1.0,94,0.00,,---,0.01,VWS V14.01,2013-05-19 01:35:00,
2013-05-18 21:40:00,61.0,59.3,30.12,NNW,340,0.0,0.0,94,0.00,,---,0.01,VWS V14.01,2013-05-19 01:40:00,
2013-05-18 21:45:00,60.9,59.2,30.13,NNW,340,0.0,1.0,94,0.00,,---,0.01,VWS V14.01,2013-05-19 01:45:00,
2013-05-18 21:50:00,60.8,59.1,30.13,NNW,340,0.0,1.0,94,0.00,,---,0.01,VWS V14.01,2013-05-19 01:50:00,
2013-05-18 21:55:00,60.6,58.9,30.13,SSW,200,0.0,1.0,94,0.00,,---,0.01,VWS V14.01,2013-05-19 01:55:00,
2013-05-18 22:00:00,60.4,58.7,30.14,SSE,155,0.0,0.0,94,0.00,,---,0.01,VWS V14.01,2013-05-19 02:00:00,
2013-05-18 22:05:00,60.3,58.6,30.14,NE,51,3.0,3.0,94,0.00,,---,0.01,VWS V14.01,2013-05-19 02:05:00,
2013-05-18 22:10:00,60.1,58.7,30.14,South,186,5.0,5.0,95,0.00,,---,0.01,VWS V14.01,2013-05-19 02:10:00,
2013-05-18 22:15:00,60.1,58.7,30.14,West,272,0.0,1.0,95,0.00,,---,0.01,VWS V14.01,2013-05-19 02:15:00,
2013-05-18 22:20:00,60.0,58.6,30.14,South,170,1.0,3.0,95,0.00,,---,0.01,VWS V14.01,2013-05-19 02:20:00,
2013-05-18 22:25:00,59.8,58.4,30.14,SSE,161,2.0,3.0,95,0.00,,---,0.01,VWS V14.01,2013-05-19 02:25:00,
2013-05-18 22:30:00,59.7,58.3,30.14,SSW,213,3.0,4.0,95,0.00,,---,0.01,VWS V14.01,2013-05-19 02:30:00,
2013-05-18 22:35:00,59.6,58.2,30.14,SE,143,0.0,2.0,95,0.00,,---,0.01,VWS V14.01,2013-05-19 02:35:00,
2013-05-18 22:40:00,59.4,58.0,30.14,SSE,148,3.0,6.0,95,0.00,,---,0.01,VWS V14.01,2013-05-19 02:40:00,
2013-05-18 22:45:00,59.3,57.9,30.14,SE,134,0.0,4.0,95,0.00,,---,0.01,VWS V14.01,2013-05-19 02:45:00,
2013-05-18 22:50:00,59.2,58.1,30.14,SSW,194,4.0,4.0,96,0.00,,---,0.01,VWS V14.01,2013-05-19 02:50:00,
2013-05-18 22:55:00,59.1,58.0,30.14,SSE,149,0.0,0.0,96,0.00,,---,0.01,VWS V14.01,2013-05-19 02:55:00,
2013-05-18 23:00:00,59.1,58.0,30.14,South,180,0.0,1.0,96,0.00,,---,0.01,VWS V14.01,2013-05-19 03:00:00,
2013-05-18 23:05:00,59.0,57.9,30.14,ESE,112,1.0,1.0,96,0.00,,---,0.01,VWS V14.01,2013-05-19 03:05:00,
2013-05-18 23:10:00,59.0,57.9,30.14,ESE,117,2.0,2.0,96,0.00,,---,0.01,VWS V14.01,2013-05-19 03:10:00,
2013-05-18 23:15:00,59.0,57.9,30.14,South,170,2.0,5.0,96,0.00,,---,0.01,VWS V14.01,2013-05-19 03:15:00,
2013-05-18 23:20:00,58.9,57.8,30.13,South,187,5.0,6.0,96,0.00,,---,0.01,VWS V14.01,2013-05-19 03:20:00,
2013-05-18 23:25:00,58.9,58.0,30.14,SE,138,4.0,4.0,97,0.00,,---,0.01,VWS V14.01,2013-05-19 03:25:00,
2013-05-18 23:30:00,58.8,58.0,30.14,SSW,205,1.0,2.0,97,0.00,,---,0.01,VWS V14.01,2013-05-19 03:30:00,
2013-05-18 23:35:00,58.8,58.0,30.14,SSW,192,3.0,3.0,97,0.00,,---,0.01,VWS V14.01,2013-05-19 03:35:00,
2013-05-18 23:40:00,58.8,58.0,30.13,South,191,4.0,6.0,97,0.00,,---,0.01,VWS V14.01,2013-05-19 03:40:00,
2013-05-18 23:45:00,58.8,58.0,30.14,SE,127,3.0,5.0,97,0.00,,---,0.01,VWS V14.01,2013-05-19 03:45:00,
2013-05-18 23:50:00,58.7,57.8,30.14,South,182,1.0,2.0,97,0.00,,---,0.01,VWS V14.01,2013-05-19 03:50:00,
2013-05-18 23:55:00,58.7,57.8,30.14,SW,225,1.0,1.0,97,0.00,,---,0.01,VWS V14.01,2013-05-19 03:55:00,